Location: L�Ave Maria
(50.7161°N, 1.5911°E)
Time: 00:28:35
(UTC+00:00)

Lacrosse 5 - Pass Details

Date: 10 July 2020
Orbit: 717 x 720 km, 57.0° (Epoch: 02 August)

Event Time Altitude Azimuth Distance (km) Brightness Sun altitude
Exits shadow 23:28:01 12° 117° (ESE) 2,068 3.9 -16.9°
Drops below altitude 10° 23:29:40 10° 98° (E) 2,202 4.2 -16.9°
Sets 23:33:35 0° 68° (ENE) 3,129 5.4 -17.0°
